Regional Weather Roundup
Issued by NWS

Home | Current Version | Previous Version | Graphics & Text | Print | Product List | Glossary On
Versions: 1 2 3 4 5 6 7 8 9 10 11 12 13 14 15 16 17 18 19 20 21 22 23 24 25 26 27 28 29 30 31 32 33 34 35 36 37 38 39 40 41 42 43 44 45 46 47 48 49 50
510
ASUS43 KOAX 231002
RWRNE

WEATHER ROUNDUP FOR NEBRASKA
NATIONAL WEATHER SERVICE OMAHA NE
500 AM CDT SAT SEP 23 2017

NOTES: SATELLITE DATA IS BEING USED TO AUGMENT CLOUD COVER ABOVE
       12000 FEET.
       "FAIR" INDICATES FEW OR NO CLOUDS BELOW 12,000 FEET WITH NO
       SIGNIFICANT WEATHER AND/OR OBSTRUCTIONS TO VISIBILITY.


NEZ001>004-019>022-054>056-231100-
NEBRASKA PANHANDLE

CITY           SKY/WX    TMP DP  RH WIND       PRES   REMARKS
SCOTTSBLUFF    CLOUDY    46  37  71 N9        29.98F
ALLIANCE       MOCLDY    45  39  79 N10       29.96F
CHADRON        CLOUDY    45  38  76 N6        30.04R
GORDON         CLOUDY    45  41  87 N9        29.98F
KIMBALL        CLOUDY    44  42  93 N9G16     29.99R
SIDNEY         CLOUDY    46  39  76 N13       29.96R
$$

NEZ057>060-069>072-079>082-231100-
SOUTHWEST NEBRASKA

CITY           SKY/WX    TMP DP  RH WIND       PRES   REMARKS
NORTH PLATTE   TSTM      54  49  83 NE17G23   29.90F
IMPERIAL       CLOUDY    54  46  74 N13       29.88R
LEXINGTON      CLOUDY    64  56  74 NE9       29.88R
MCCOOK         PTCLDY    73  65  75 W7        29.84R
OGALLALA       CLOUDY    50  47  88 NE12      29.92F
$$

NEZ005>010-023>029-035>040-094-231100-
NORTH CENTRAL NEBRASKA

CITY           SKY/WX    TMP DP  RH WIND       PRES   REMARKS
VALENTINE      CLOUDY    49  46  90 N8        29.98R
AINSWORTH      CLOUDY    48  48  99 NE8G20    29.97F
BROKEN BOW     CLOUDY    56  50  80 N14       29.93R
O`NEILL        CLOUDY    53  52  97 N14       29.97R
ORD            PTCLDY    56  52  86 N8        29.91R
THEDFORD       CLOUDY    48  47  94 NE10      29.96F
$$

NEZ041-046>049-061>064-073>077-083>087-231100-
SOUTH CENTRAL NEBRASKA

CITY           SKY/WX    TMP DP  RH WIND       PRES   REMARKS
GRAND ISLAND   CLOUDY    73  68  84 S10       29.88R
AURORA         CLEAR     71  67  87 S8        29.89R
HASTINGS       PTCLDY    74  65  73 S13       29.88R
HEBRON         CLEAR     72  67  84 S9        29.90R
HOLDREGE       CLEAR     72  63  74 S12G17    29.86R
KEARNEY        CLEAR     72  65  78 S7        29.88R
YORK           CLEAR     72  68  88 S7        29.90R
$$

NEZ011>018-030>034-042>045-231100-
NORTHEAST NEBRASKA

CITY           SKY/WX    TMP DP  RH WIND       PRES   REMARKS
NORFOLK        PTCLDY    63  62  97 W9        29.90R
ALBION         CLEAR     61  59  91 NW6       29.91R
BLAIR          CLEAR     72  67  85 S8        29.92R
COLUMBUS       PTCLDY    72  67  84 S8        29.89S
FREMONT        CLEAR     71  66  85 SE6       29.91R
TEKAMAH        PTCLDY    70  66  87 S6        29.89R
WAYNE          PTCLDY    65  63  91 CALM      29.89S
$$

NEZ050>053-065>068-078-088>093-231100-
SOUTHEAST NEBRASKA

CITY           SKY/WX    TMP DP  RH WIND       PRES   REMARKS
LINCOLN        CLEAR     73  67  81 S10       29.90R
OMAHA EPPLEY   PTCLDY    72  66  81 SE9       29.91S
BEATRICE       CLEAR     72  67  84 S6        29.91S
FALLS CITY     CLEAR     71  67  87 S5        29.93R
NEBRASKA CITY  CLEAR     71  71 100 S8        29.94R
PLATTSMOUTH    CLEAR     70  68  95 SE7       29.93R
$$

NEZ044-045-051>053-067-231100-
OMAHA AREA

CITY           SKY/WX    TMP DP  RH WIND       PRES   REMARKS
OMAHA EPPLEY   PTCLDY    72  66  81 SE9       29.91S
BLAIR          CLEAR     72  67  85 S8        29.92R
FREMONT        CLEAR     71  66  85 SE6       29.91R
MILLARD        CLEAR     73  68  85 SE3       29.92R
OFFUTT AFB     CLEAR     71  67  88 E6        29.91R
PLATTSMOUTH    CLEAR     70  68  95 SE7       29.93R
WAHOO          FAIR      67  65  95 NE3       29.90S
$$




USA.gov is the U.S. government's official web portal to all federal, state and local government web resources and services.